LUCH 5A

Last updated on Sat Jul 05 2025 00:02:32 GMT+0000 (Coordinated Universal Time)

1 37951U 11074B 25185.51919733 -.00000041 00000+0 00000+0 0 9991 2 37951 7.8684 79.0211 0003566 42.5040 155.1717 1.00269701 49562
UTC large
Height (km)
Speed (km/s)
/
Latitude / Longitude
Inclination (degrees)
Orbital Period (minutes)
Azimuth
Elevation
Range (km)
Doppler Factor

Next 0 passes for location: London (51.5072 / 0.1276)

Sorry there are no passes over London.